ICESAT-2

Last updated on Mon Sep 07 2026 00:02:46 GMT+0000 (Coordinated Universal Time)

1 43613U 18070A 26249.61097191 .00005167 00000+0 18765-3 0 9998 2 43613 92.0047 312.9754 0005250 129.7767 230.3946 15.28260748444892
UTC large
Height (km)
Speed (km/s)
/
Latitude / Longitude
Inclination (degrees)
Orbital Period (minutes)
Azimuth
Elevation
Range (km)
Doppler Factor

Next 0 passes for location: London (51.5072 / 0.1276)

No passes found over London.
ICESAT-2